GW5072 Weather Reports


Display with metric or nautical units.
time (UTC)temp
F
wind
direction
speed
MPH
gust
MPH
rain 1hr
in
rain 24hr
in
rain mn
in
humidity
%
barometer
mb
20260507095508 64 84 0.0 1.0 0.00 0.04 0.00 90 1013.9
20260507095008 64 216 0.0 0.0 0.00 0.04 0.00 90 1014.0
20260507094509 64 215 0.0 1.0 0.00 0.04 0.00 90 1013.7
20260507094010 64 215 0.0 2.0 0.00 0.04 0.00 90 1013.9
20260507093505 64 86 0.0 2.0 0.00 0.04 0.00 90 1013.7
20260507093008 64 219 0.0 1.0 0.00 0.04 0.00 90 1013.4
20260507092507 64 80 0.0 1.0 0.00 0.04 0.00 90 1013.5
20260507092008 64 79 0.0 1.0 0.00 0.04 0.00 90 1013.7
20260507091506 64 98 0.0 1.0 0.00 0.04 0.00 91 1013.4
20260507091003 64 341 0.0 2.0 0.00 0.04 0.00 90 1013.6
20260507090503 64 252 0.0 2.0 0.00 0.04 0.00 90 1013.6
20260507090010 64 217 0.0 2.0 0.00 0.04 0.00 90 1013.6
20260507085503 63 349 0.0 2.0 0.00 0.04 0.00 90 1013.6
20260507085004 63 349 0.0 2.0 0.00 0.04 0.00 90 1013.8
20260507084505 63 321 0.0 1.0 0.00 0.04 0.00 90 1013.8
20260507084004 63 37 0.0 1.0 0.00 0.04 0.00 90 1013.6
20260507083501 63 37 0.0 1.0 0.00 0.04 0.00 90 1013.7
20260507083003 63 206 0.0 0.0 0.00 0.04 0.00 90 1013.3
20260507082503 63 207 0.0 1.0 0.00 0.04 0.00 90 1013.6
20260507082002 63 23 0.0 1.0 0.00 0.04 0.00 90 1013.9
20260507081518 63 210 0.0 1.0 0.00 0.04 0.00 90 1013.4
20260507081002 63 297 0.0 5.0 0.00 0.04 0.00 89 1013.5
20260507080506 63 341 1.0 5.0 0.00 0.04 0.00 89 1013.7
20260507080005 64 330 0.0 4.0 0.00 0.04 0.00 89 1014.1
20260507075503 64 323 1.0 4.0 0.00 0.04 0.00 89 1013.7
20260507075004 64 358 0.0 4.0 0.00 0.04 0.00 89 1013.7
20260507074507 64 310 0.0 6.0 0.00 0.04 0.00 89 1013.6
20260507074002 64 65 0.0 6.0 0.00 0.04 0.00 89 1014.1
20260507073506 64 348 0.0 3.0 0.00 0.04 0.00 88 1014.0
20260507073008 64 354 0.0 3.0 0.00 0.04 0.00 88 1014.3
20260507072504 64 353 0.0 2.0 0.00 0.04 0.00 88 1013.8
20260507072001 64 327 0.0 4.0 0.00 0.04 0.00 88 1014.0
20260507071503 64 329 0.0 4.0 0.00 0.04 0.00 88 1013.8
20260507071005 64 338 0.0 3.0 0.00 0.04 0.00 88 1013.8
20260507070503 64 13 0.0 2.0 0.00 0.04 0.00 88 1014.1
20260507070010 64 325 0.0 4.0 0.00 0.04 0.00 88 1014.4
20260507065502 64 22 0.0 4.0 0.00 0.04 0.00 87 1014.3
20260507065005 64 307 0.0 4.0 0.00 0.04 0.00 88 1014.5
20260507064508 64 24 0.0 4.0 0.00 0.04 0.00 87 1014.2
20260507064003 64 321 0.0 3.0 0.00 0.04 0.00 87 1014.2
20260507063504 64 335 0.0 3.0 0.00 0.04 0.00 87 1014.2
20260507063007 64 321 0.0 6.0 0.00 0.04 0.00 87 1014.3
20260507062504 64 323 0.0 6.0 0.00 0.04 0.00 87 1014.5
20260507062004 64 311 0.0 2.0 0.00 0.04 0.00 87 1014.0
20260507061510 64 18 0.0 4.0 0.00 0.04 0.00 87 1014.1
20260507061004 64 333 0.0 5.0 0.00 0.04 0.00 86 1014.4
20260507060503 64 321 1.0 5.0 0.00 0.04 0.00 86 1014.4
20260507060012 64 316 0.0 6.0 0.00 0.04 0.00 87 1014.0
20260507055502 64 310 1.0 6.0 0.00 0.04 0.00 86 1013.7
20260507055005 64 294 1.0 6.0 0.00 0.04 0.00 86 1013.8
20260507054511 65 327 0.0 6.0 0.00 0.04 0.00 86 1013.9
20260507054003 65 349 1.0 6.0 0.00 0.04 0.00 86 1014.1
20260507053503 65 326 0.0 5.0 0.00 0.04 0.00 86 1014.1
20260507053009 65 43 0.0 3.0 0.00 0.04 0.00 86 1014.0
20260507052502 65 311 0.0 3.0 0.00 0.04 0.00 86 1014.1
20260507052006 65 302 0.0 5.0 0.00 0.04 0.00 85 1014.0
20260507051507 65 278 0.0 5.0 0.00 0.04 0.00 85 1014.0
20260507051004 65 307 0.0 4.0 0.00 0.04 0.00 85 1013.8
20260507050506 65 272 0.0 3.0 0.00 0.04 0.00 85 1014.0
20260507050011 65 203 0.0 3.0 0.00 0.04 0.00 85 1013.9
20260507045504 65 315 0.0 6.0 0.00 0.04 0.04 85 1013.8
20260507045004 65 10 0.0 6.0 0.00 0.04 0.04 85 1013.7
20260507044530 66 334 0.0 5.0 0.00 0.04 0.04 86 1013.8
20260507044003 66 328 1.0 5.0 0.00 0.04 0.04 85 1013.8
20260507043503 66 300 0.0 4.0 0.00 0.04 0.04 85 1013.8
20260507043015 66 326 0.0 4.0 0.00 0.04 0.04 85 1013.7
20260507042505 66 345 0.0 5.0 0.00 0.04 0.04 86 1013.7
20260507042005 66 348 0.0 6.0 0.00 0.04 0.04 85 1013.8
20260507041515 66 338 0.0 6.0 0.00 0.04 0.04 85 1013.7
20260507041004 66 329 1.0 6.0 0.00 0.04 0.04 85 1013.6
20260507040505 67 331 1.0 4.0 0.00 0.04 0.04 85 1013.7
20260507040014 67 265 0.0 3.0 0.00 0.04 0.04 85 1013.9
20260507035504 67 283 0.0 4.0 0.00 0.04 0.04 85 1013.8
20260507035002 67 318 0.0 4.0 0.00 0.04 0.04 85 1013.7
20260507034513 67 327 1.0 4.0 0.00 0.04 0.04 84 1013.8
20260507034007 67 326 0.0 3.0 0.00 0.04 0.04 85 1013.9
20260507033503 67 322 0.0 4.0 0.00 0.04 0.04 85 1013.8
20260507033010 67 314 1.0 4.0 0.00 0.04 0.04 84 1013.9
20260507032504 67 335 1.0 4.0 0.00 0.04 0.04 84 1013.6
20260507032008 68 323 0.0 3.0 0.00 0.04 0.04 85 1013.4
20260507031516 68 326 0.0 2.0 0.00 0.04 0.04 85 1013.4
20260507031007 68 334 0.0 2.0 0.00 0.04 0.04 85 1013.3
20260507030506 68 323 0.0 4.0 0.00 0.04 0.04 85 1013.1
20260507030016 68 324 0.0 9.0 0.00 0.04 0.04 85 1013.0
20260507025506 68 346 1.0 9.0 0.00 0.04 0.04 84 1013.0
20260507025003 68 32 0.0 7.0 0.00 0.04 0.04 84 1012.6
20260507024519 68 332 1.0 7.0 0.00 0.04 0.04 84 1012.4
20260507024003 68 288 0.0 5.0 0.00 0.04 0.04 85 1012.5
20260507023504 68 314 0.0 6.0 0.00 0.04 0.04 85 1012.3
20260507023020 69 323 0.0 6.0 0.00 0.04 0.04 84 1012.2
20260507022504 69 17 0.0 7.0 0.00 0.04 0.04 85 1012.2
20260507022009 69 347 0.0 7.0 0.00 0.04 0.04 84 1012.0
20260507021522 69 319 1.0 5.0 0.00 0.04 0.04 85 1011.9
20260507021009 69 309 0.0 5.0 0.00 0.04 0.04 85 1011.7
20260507020508 69 301 0.0 4.0 0.00 0.04 0.04 85 1011.8
20260507020024 69 20 0.0 4.0 0.00 0.04 0.04 85 1011.7
20260507015506 69 322 0.0 3.0 0.00 0.04 0.04 85 1011.5
20260507015003 69 302 0.0 3.0 0.00 0.04 0.04 85 1011.5
20260507014515 69 316 0.0 3.0 0.00 0.04 0.04 85 1011.5
20260507014007 69 359 0.0 3.0 0.00 0.04 0.04 85 1011.4
20260507013506 69 317 0.0 3.0 0.00 0.04 0.04 84 1011.2
20260507013020 70 309 0.0 5.0 0.00 0.04 0.04 84 1011.2
20260507012508 70 316 0.0 5.0 0.00 0.04 0.04 84 1011.2
20260507012006 70 347 0.0 4.0 0.00 0.04 0.04 84 1011.1
20260507011519 70 338 1.0 4.0 0.00 0.04 0.04 84 1010.9
20260507011007 70 330 1.0 6.0 0.00 0.04 0.04 83 1010.8
20260507010507 71 316 1.0 6.0 0.00 0.04 0.04 83 1010.9
20260507010026 71 323 1.0 6.0 0.00 0.04 0.04 83 1011.0
20260507005508 71 20 2.0 7.0 0.00 0.04 0.04 83 1010.9
20260507005011 71 326 1.0 7.0 0.00 0.04 0.04 83 1010.7
20260507004521 71 337 2.0 6.0 0.00 0.04 0.04 83 1010.7
20260507004008 71 354 3.0 6.0 0.00 0.04 0.04 83 1010.5
20260507003508 72 319 1.0 6.0 0.00 0.04 0.04 83 1010.6
20260507003028 72 297 2.0 6.0 0.00 0.04 0.04 83 1010.4
20260507002505 72 321 1.0 6.0 0.00 0.04 0.04 83 1010.3
20260507002011 72 340 0.0 7.0 0.00 0.04 0.04 84 1010.2
20260507001534 72 319 1.0 7.0 0.00 0.04 0.04 83 1010.1
20260507001003 73 23 2.0 6.0 0.00 0.04 0.04 83 1010.1
20260507000503 73 359 1.0 6.0 0.00 0.04 0.04 83 1010.1
20260507000020 74 2 1.0 6.0 0.00 0.04 0.04 83 1010.1
20260506235504 74 344 1.0 5.0 0.00 0.04 0.04 84 1009.9
20260506235002 74 323 1.0 7.0 0.00 0.04 0.04 84 1010.0
20260506234516 74 328 2.0 7.0 0.00 0.04 0.04 84 1009.9
20260506234004 74 319 1.0 8.0 0.00 0.04 0.04 84 1010.0
20260506233507 75 288 1.0 8.0 0.00 0.04 0.04 84 1009.9
20260506233016 75 338 1.0 7.0 0.00 0.04 0.04 84 1009.8
20260506232504 76 348 3.0 7.0 0.00 0.04 0.04 83 1009.6
20260506232005 77 326 3.0 7.0 0.00 0.04 0.04 83 1009.7
20260506231513 78 316 1.0 6.0 0.00 0.04 0.04 82 1009.7
20260506231003 81 293 0.0 3.0 0.00 0.04 0.04 83 1009.4
20260506230505 82 198 0.0 0.0 0.00 0.04 0.04 87 1009.1
20260506230010 82 198 0.0 0.0 0.00 0.04 0.04 87 1009.2
20260506225507 82 198 0.0 0.0 0.00 0.04 0.04 87 1009.0
20260506225004 82 198 0.0 0.0 0.00 0.04 0.04 86 1009.1
20260506224503 82 198 0.0 0.0 0.00 0.04 0.04 86 1009.1
20260506224005 83 198 0.0 0.0 0.00 0.04 0.04 86 1009.1
20260506223502 83 198 0.0 0.0 0.00 0.04 0.04 84 1008.9
20260506223006 83 198 0.0 0.0 0.00 0.04 0.04 83 1008.9
20260506222506 83 198 0.0 0.0 0.00 0.04 0.04 82 1008.9
20260506222008 84 198 0.0 0.0 0.00 0.04 0.04 82 1008.9
20260506221521 84 198 0.0 0.0 0.00 0.04 0.04 82 1008.8
20260506221007 84 198 0.0 0.0 0.00 0.04 0.04 81 1008.8
20260506220503 84 198 0.0 0.0 0.00 0.04 0.04 80 1008.8
20260506220021 84 198 0.0 0.0 0.00 0.04 0.04 80 1008.9
20260506215504 84 198 0.0 0.0 0.00 0.04 0.04 80 1008.8
20260506215007 84 198 0.0 0.0 0.00 0.04 0.04 81 1008.8
20260506214519 84 198 0.0 0.0 0.00 0.04 0.04 82 1008.9
20260506214008 84 198 0.0 0.0 0.00 0.04 0.04 83 1009.0
20260506213507 84 198 0.0 0.0 0.00 0.04 0.04 81 1008.9
20260506213015 84 198 0.0 0.0 0.00 0.04 0.04 80 1008.9
20260506212504 86 198 0.0 0.0 0.00 0.04 0.04 78 1008.9
20260506212011 86 198 0.0 0.0 0.00 0.04 0.04 78 1009.0
20260506211512 86 198 0.0 0.0 0.00 0.04 0.04 77 1009.0
20260506211010 86 198 0.0 1.0 0.00 0.04 0.04 76 1008.9
20260506210507 86 196 0.0 1.0 0.00 0.04 0.04 76 1008.9
20260506210017 86 205 0.0 0.0 0.00 0.04 0.04 77 1009.0
20260506205512 86 205 0.0 2.0 0.00 0.04 0.04 77 1009.1
20260506205006 86 205 0.0 2.0 0.00 0.04 0.04 79 1009.2
20260506204508 86 221 0.0 3.0 0.00 0.04 0.04 79 1009.1
20260506204006 86 239 0.0 3.0 0.00 0.04 0.04 79 1009.2
20260506203509 86 199 0.0 2.0 0.00 0.04 0.04 80 1009.1
20260506203031 86 162 0.0 1.0 0.00 0.04 0.04 80 1009.2
20260506202507 86 265 0.0 1.0 0.00 0.04 0.04 82 1009.2
20260506202009 85 243 0.0 1.0 0.00 0.04 0.04 82 1009.2
20260506201522 84 205 0.0 0.0 0.00 0.04 0.04 82 1009.4
20260506201007 83 200 0.0 0.0 0.00 0.04 0.04 86 1009.4
20260506200515 82 200 0.0 0.0 0.00 0.04 0.04 87 1009.4
20260506200021 82 166 0.0 0.0 0.00 0.04 0.04 89 1009.6
20260506195507 81 167 0.0 0.0 0.00 0.04 0.04 90 1009.7
20260506195010 81 166 0.0 0.0 0.00 0.04 0.04 89 1009.8
20260506194520 80 166 0.0 0.0 0.00 0.04 0.04 90 1009.8
20260506194004 80 166 0.0 0.0 0.03 0.04 0.04 90 1009.8
20260506193506 80 166 0.0 0.0 0.04 0.04 0.04 89 1009.9
20260506193018 80 166 0.0 0.0 0.04 0.04 0.04 90 1009.9
20260506192508 80 166 0.0 0.0 0.04 0.04 0.04 90 1009.8
20260506192011 80 165 0.0 0.0 0.04 0.04 0.04 91 1009.8
20260506191516 79 165 0.0 0.0 0.04 0.04 0.04 92 1009.8
20260506191009 79 165 0.0 0.0 0.04 0.04 0.04 91 1009.9
20260506190506 79 165 0.0 0.0 0.04 0.04 0.04 91 1010.0
20260506190011 79 165 0.0 0.0 0.04 0.04 0.04 92 1010.0
20260506185508 78 165 0.0 0.0 0.04 0.04 0.04 91 1010.1
20260506185007 79 165 0.0 0.0 0.04 0.04 0.04 89 1010.2
20260506184531 79 165 0.0 0.0 0.04 0.04 0.04 89 1010.2
20260506184007 79 164 0.0 0.0 0.01 0.01 0.01 87 1010.2
20260506183504 80 164 0.0 0.0 0.00 0.00 0.00 86 1010.3
20260506183028 80 164 0.0 0.0 0.00 0.00 0.00 85 1010.4
20260506182507 80 164 0.0 0.0 0.00 0.00 0.00 85 1010.4
20260506182006 80 164 0.0 0.0 0.00 0.00 0.00 85 1010.4
20260506181527 81 164 0.0 0.0 0.00 0.00 0.00 84 1010.5
20260506181004 81 164 0.0 0.0 0.00 0.00 0.00 85 1010.6
20260506180509 81 164 0.0 0.0 0.00 0.00 0.00 84 1010.8
20260506180026 81 217 0.0 0.0 0.00 0.00 0.00 84 1010.9
20260506175506 81 217 0.0 0.0 0.00 0.00 0.00 84 1011.1
20260506175012 80 217 0.0 0.0 0.00 0.00 0.00 85 1011.1
20260506174522 80 217 0.0 0.0 0.00 0.00 0.00 85 1011.3
20260506174011 81 217 0.0 0.0 0.00 0.00 0.00 84 1011.4
20260506173508 81 217 0.0 0.0 0.00 0.00 0.00 85 1011.5
20260506173020 80 217 0.0 0.0 0.00 0.00 0.00 85 1011.5
20260506172509 80 217 0.0 0.0 0.00 0.00 0.00 87 1011.6
20260506172009 80 216 0.0 0.0 0.00 0.00 0.00 86 1011.6
20260506171523 80 216 0.0 0.0 0.00 0.00 0.00 87 1011.6
20260506171009 80 216 0.0 0.0 0.00 0.00 0.00 88 1011.5
20260506170511 80 217 0.0 0.0 0.00 0.00 0.00 86 1011.7
20260506170037 80 217 0.0 0.0 0.00 0.00 0.00 86 1011.7
20260506165508 80 216 0.0 0.0 0.00 0.00 0.00 87 1011.7
20260506165006 80 217 0.0 0.0 0.00 0.00 0.00 87 1011.7
20260506164532 80 216 0.0 0.0 0.00 0.00 0.00 87 1011.6
20260506164009 80 216 0.0 0.0 0.00 0.00 0.00 86 1011.6
20260506163512 80 216 0.0 0.0 0.00 0.00 0.00 84 1011.5
20260506163029 80 213 0.0 1.0 0.00 0.00 0.00 85 1011.4
20260506162509 80 213 0.0 1.0 0.00 0.00 0.00 85 1011.3
20260506162013 80 217 0.0 1.0 0.00 0.00 0.00 85 1011.4
20260506161525 80 212 0.0 0.0 0.00 0.00 0.00 85 1011.2
20260506161005 80 212 0.0 0.0 0.00 0.00 0.00 85 1011.1
20260506160509 80 212 0.0 0.0 0.00 0.00 0.00 85 1011.2
20260506160026 80 214 0.0 1.0 0.00 0.00 0.00 85 1011.2
20260506155505 80 214 0.0 1.0 0.00 0.00 0.00 86 1011.0
20260506155011 80 351 0.0 1.0 0.00 0.00 0.00 87 1010.9
20260506154525 79 352 0.0 1.0 0.00 0.00 0.00 87 1011.0
20260506154014 79 341 0.0 1.0 0.00 0.00 0.00 86 1010.9
20260506153514 79 240 0.0 0.0 0.00 0.00 0.00 87 1011.0
20260506153020 79 221 0.0 0.0 0.00 0.00 0.00 86 1010.9
20260506152509 79 221 0.0 1.0 0.00 0.00 0.00 87 1010.9
20260506152011 79 221 0.0 1.0 0.00 0.00 0.00 87 1010.9
20260506151529 79 222 0.0 1.0 0.00 0.00 0.00 87 1011.0
20260506151004 79 223 0.0 0.0 0.00 0.00 0.00 87 1011.1
20260506150507 79 153 0.0 0.0 0.00 0.00 0.00 87 1010.9
20260506150012 78 152 0.0 0.0 0.00 0.00 0.00 88 1010.8
20260506145505 78 153 0.0 0.0 0.00 0.00 0.00 88 1010.6
20260506145010 78 153 0.0 0.0 0.00 0.00 0.00 88 1010.7
20260506144512 78 153 0.0 0.0 0.00 0.00 0.00 88 1010.6
20260506144002 78 210 0.0 0.0 0.00 0.00 0.00 89 1010.5
20260506143505 78 210 0.0 0.0 0.00 0.00 0.00 89 1010.5
20260506143009 78 210 0.0 0.0 0.00 0.00 0.00 89 1010.4
20260506142510 77 199 0.0 0.0 0.00 0.00 0.00 90 1010.2
20260506142006 77 199 0.0 0.0 0.00 0.00 0.00 90 1010.2
20260506141506 77 166 0.0 0.0 0.00 0.00 0.00 91 1010.2
20260506141006 77 166 0.0 0.0 0.00 0.00 0.00 92 1010.3
20260506140503 76 166 0.0 0.0 0.00 0.00 0.00 91 1010.3
20260506140004 76 166 0.0 0.0 0.00 0.00 0.00 92 1010.4
20260506135506 76 166 0.0 0.0 0.00 0.00 0.00 92 1010.3
20260506135002 76 180 0.0 0.0 0.00 0.00 0.00 92 1010.4
20260506134523 76 181 0.0 0.0 0.00 0.00 0.00 93 1010.6
20260506134005 76 181 0.0 0.0 0.00 0.00 0.00 93 1010.6
20260506133503 75 181 0.0 0.0 0.00 0.00 0.00 93 1010.6
20260506133039 75 181 0.0 0.0 0.00 0.00 0.00 93 1010.5
20260506132508 75 181 0.0 0.0 0.00 0.00 0.00 93 1010.7
20260506132007 75 181 0.0 0.0 0.00 0.00 0.00 93 1010.6
20260506131523 75 181 0.0 0.0 0.00 0.00 0.00 93 1010.6
20260506131003 75 181 0.0 0.0 0.00 0.00 0.00 94 1010.6
20260506130507 75 181 0.0 0.0 0.00 0.00 0.00 94 1010.6
20260506130016 75 181 0.0 0.0 0.00 0.00 0.00 94 1010.6
20260506125503 74 181 0.0 0.0 0.00 0.00 0.00 94 1010.5
20260506125007 74 181 0.0 0.0 0.00 0.00 0.00 94 1010.4
20260506124513 74 181 0.0 0.0 0.00 0.00 0.00 94 1010.4
20260506124009 74 181 0.0 0.0 0.00 0.00 0.00 94 1010.3
20260506123507 74 181 0.0 0.0 0.00 0.00 0.00 94 1010.2
20260506123012 74 181 0.0 0.0 0.00 0.00 0.00 94 1010.2
20260506122509 74 181 0.0 0.0 0.00 0.00 0.00 94 1010.2
20260506122006 74 181 0.0 0.0 0.00 0.00 0.00 94 1010.2
20260506121510 74 181 0.0 0.0 0.00 0.00 0.00 94 1010.2
20260506121006 74 181 0.0 0.0 0.00 0.00 0.00 94 1010.1
20260506120503 74 181 0.0 0.0 0.00 0.00 0.00 94 1010.0
20260506120035 74 181 0.0 0.0 0.00 0.00 0.00 94 1009.9
20260506115512 74 181 0.0 0.0 0.00 0.00 0.00 94 1010.0
20260506115004 74 181 0.0 0.0 0.00 0.00 0.00 94 1010.0
20260506114523 74 181 0.0 0.0 0.00 0.00 0.00 94 1009.8
20260506114008 73 181 0.0 0.0 0.00 0.00 0.00 94 1009.6
20260506113504 73 181 0.0 0.0 0.00 0.00 0.00 94 1009.8
20260506113023 73 181 0.0 0.0 0.00 0.00 0.00 93 1009.9
20260506112503 73 181 0.0 0.0 0.00 0.00 0.00 93 1009.8
20260506112010 73 181 0.0 0.0 0.00 0.00 0.00 93 1009.7
20260506111519 73 181 0.0 0.0 0.00 0.00 0.00 93 1009.7
20260506111006 73 181 0.0 0.0 0.00 0.00 0.00 93 1009.6
20260506110509 73 181 0.0 0.0 0.00 0.00 0.00 93 1009.5
20260506110019 74 181 0.0 0.0 0.00 0.00 0.00 93 1009.4
20260506105506 74 181 0.0 2.0 0.00 0.00 0.00 92 1009.2
20260506105008 74 181 0.0 2.0 0.00 0.00 0.00 92 1009.0
20260506104512 74 313 0.0 1.0 0.00 0.00 0.00 92 1009.0
20260506104008 74 69 0.0 1.0 0.00 0.00 0.00 92 1008.9
20260506103507 74 92 0.0 1.0 0.00 0.00 0.00 92 1008.8
20260506103010 74 288 0.0 1.0 0.00 0.00 0.00 92 1008.8
20260506102509 74 114 0.0 1.0 0.00 0.00 0.00 92 1008.8
20260506102009 74 91 0.0 4.0 0.00 0.00 0.00 92 1008.9
20260506101538 74 197 0.0 4.0 0.00 0.00 0.00 92 1008.8
20260506101010 75 70 0.0 2.0 0.00 0.00 0.00 92 1008.9
20260506100503 75 79 0.0 3.0 0.00 0.00 0.00 92 1008.8
20260506100031 75 110 0.0 3.0 0.00 0.00 0.00 92 1008.9